Погода Нижне-Усинское

Погода Нижне-Усинское : погода сейчас, прогноз погоды и архив. Всё, что Вы хотите узнать о погоде Нижне-Усинское!

Поиск расширенной информации на нашем сайте:

Другие новости

Новости СМИ2

Главная страница сайта

Новости сайта

03.07.2017

Напоминаем, что на нашем специализированном сайте Метеоцентр.Азия вы можете получить высокодетализированные автоматические прогнозы погоды по пунктам России, СНГ и мира в авиационном формате (включающие направление и скорость ветра, видимость, явления погоды, количество и форму облачности, нижнюю и верхнюю границу облачности).


Погода Нижне-Усинское - сегодня

Время (UTC), дата Ветер
(°,м/с) 
Видим.   Явления Облачность Т
(°С)
Тd
(°С)
f(%) Тe
(°С)
Pmin
(гПа)
dP
(гПа)
Po
(мм)
O2
(г/м3)
Тmin Tmax R s Состояние
почвы
09 16.04.18 070 (В) 20000 м    9/0 средняя, верхняя 
[Sc|Ac trans|Ci sp]
+15.8 -2.9 28 +17  1003.4  -3  696  265           
12 16.04.18 040 (СВ) 20000 м    10/10 1000 м кучево-дожд. 
[Cb cap]
+14.3 -1 35 +15  1001.6  -2  695  266    +16.2       
15 16.04.18 тихо ()   н/о  слаб. ливневой дождь  10/10 600 м кучево-дожд. 
[Cb cap]
+8 +7.1 94 +8  1004.6  1.3  696  271           
18 16.04.18 тихо ()   н/о  {ливн. осадки}  3/3 1000 м 
[Sc]
+6.1 +5.6 97 +6  1007.2  1.8  697  274           
00 17.04.18 тихо ()   4000 м  дымка  1/1 1000 м 
[Sc]
+2.2 +1.9 98 +2  1012.9  700  280  +2.1       
06 17.04.18 020 (С) 20000 м    9/9 1000 м кучево-дожд. 
[Cb cap]
+12.1 +0.6 45 +13  1008.1  -2  699  269           
09 17.04.18 300 (СЗ) 20000 м    9/8 1000 м кучево-дожд., средняя, верхняя 
[Cb cap|Ac trans|Ci sp]
+12.9 -0.5 40 +12  1006.3  -1.5  698  268           
12 17.04.18 340 (С) 20000 м    10/8 1000 м кучево-дожд. 
[Cb cap]
+12.1 -4.8 30 +12        +14.9       
15 17.04.18 170 (Ю) н/о    ясно 
+4.1 -2 64 +5  1009.4  698  277           
18 17.04.18 060 (СВ) н/о    ясно 
+3.1 -1.3 73 +3  1011.6  1.8  700  279           
21 17.04.18 060 (СВ) 1{12}  н/о    10/10 1000 м кучево-дожд. 
[Cb cap]
+4.6 -2.7 59 +5  1013  1.7  701  278           
00 18.04.18 070 (В) 20000 м    10/10 1000 м кучево-дожд. 
[Cb cap]
+3.1 -0.7 76 +3  1014.8  1.3  702  280  +3         
03 18.04.18 130 (ЮВ) 20000 м    9/3 1000 м кучево-дожд., средняя, верхняя 
[Cb cap|Ac trans|Ci sp]
+7.6 -3.1 47 +8  1012.5  -1  701  275           
06 18.04.18 010 (С) 20000 м    9/6 1000 м кучево-дожд., средняя, верхняя 
[Cb cap|Ac trans|Ci sp]
+9.8 -4.6 36 +10  1011  -0.8  701  273           
09 18.04.18 300 (СЗ) 20000 м    10/10 1000 м кучево-дожд. 
[Cb cap]
+10.1 -4.9 34 +9  1011  0.1  701  273           
12 18.04.18 310 (СЗ) 6{10}  20000 м    10/10 1000 м кучево-дожд. 
[Cb cap]
+7.5 -4 44 +5  1010.9  -0.8  700  275    +10.4       
15 18.04.18 050 (СВ) н/о    10/10 1000 м кучево-дожд. 
[Cb cap]
+4.4 -3.4 57 +3  1013.9  701  278           
18 18.04.18 080 (В) н/о    4/4 1000 м 
[Sc]
+2.3 -3.3 66 +3  1015.5  0.9  702  281           
21 18.04.18 тихо ()   н/о    ясно 
-2.8 -4.8 86 -3  1018.3  1.1  703  287           
00 19.04.18 тихо ()   20000 м    9/5 1000 м средняя, верхняя 
[Sc|Ac trans|Ci sp]
-1.1 -3.4 84 -1  1019.9  704  285  -3.9         
03 19.04.18 140 (ЮВ) 20000 м    9/6 1000 м кучево-дожд., средняя, верхняя 
[Cb cap|Ac trans|Ci sp]
+4.5 -4 54 +5  1018.9  0.6  705  280           
06 19.04.18 190 (Ю) 20000 м    9/9 1000 м кучево-дожд. 
[Cb cap]
+6.8 -4.8 43 +7  1016.6  -1.5  704  277           
09 19.04.18 тихо ()   20000 м    8/8 1000 м кучево-дожд. 
[Cb cap]
+10.2 -6.1 31 +10  1013.8  -1.8  702  273           
12 19.04.18 тихо ()   20000 м    8/8 1000 м кучево-дожд. 
[Cb cap]
+9.4 -4.1 38 +9  1012.4  -1.4  701  274    +11       
15 19.04.18 тихо ()   н/о    3/3 1000 м 
[Sc]
-10.6 -3.3 100 -11  1016.2  0.8  702  295           
Время (UTC), дата Ветер
(°,м/с) 
Видим.   Явления Облачность Т
(°С)
Тd
(°С)
f(%) Тe
(°С)
Pmin
(гПа)
dP
(гПа)
Po
(мм)
O2
(г/м3)
Тmin Tmax R s Состояние
почвы

Для получения пояснительной информации подведите курсор к названию столбца.

ПОГОДА Нижне-Усинское - архив

Всё, что Вы хотите узнать о погоде Нижне-Усинское - удобно и подробно!

Выберите нужную дату (начиная с 1 января 2015* года) и нажмите кнопку "Найти".
Будут отображены архивные сводки погоды по пункту Нижне-Усинское, начиная с указанной даты.


Отображать данные в формате CSV (для использования в таблицах Excel)


Внимание! Наш архив погоды предназначен исключительно для личного некоммерческого использования в познавательных целях. Если Вам необходимы официальные справки о состоянии погоды (для производственных, юридических, коммерческих и т.п. целей), обращайтесь в органы Росгидромета.

*Примечание: данная дата относится к архиву по метеостанциям СССР (Россия, СНГ, Балтия).
Архив по метеостанциям Зарубежной Европы и Азии (кроме Китая) хранится 10 дней, по другим регионам земного шара (Китай, Африка, Америка, Австралия, Океания) - 1 день.

Нижне-Усинское - район местоположения метеостанции


Название, широта, долгота, высота метеостанции:
Нижне-Усинское 52.3°ш. 93°д. 660 м над ур. моря [Российская Федерация]

Дополнительная информация

В oтличие oт бoльшинства пoгoдных сайтoв мы публикуем пoдрoбную метеoинфoрмацию в детальнoм прoфессиoнальнoм фoрмате.

Характеристики температуры и влажнoсти вoздуха измеряются на высoте 2 м в тени вдали oт зданий и деревьев.
Скoрoсть ветра измеряется на высoте 10 м (на урoвне рoста челoвека скoрoсть ветра ниже в 1.5-2 раза). Если метеoстанция нахoдится в гoрoде или в лесу, тo скoрoсть ветра занижена на 2-4 м/с пo сравнению с oткрытым местoм. Скoрoсть ветра над акватoриями крупных рек и oзёр, а также на вершинах хoлмoв на 2-5 м/с выше, чем в oбычных услoвиях.
Атмoсфернoе давление в разных тoчках местнoсти мoжет значительнo oтличаться oт давления на метеoстанции, в зависимoсти oт услoвий рельефа (при пoдъёме на 10 м давление пoнижается примернo на 1 мм рт.ст.).